| time (UTC) | temp F | wind direction | speed MPH | gust MPH | rain 1hr in | rain 24hr in | rain mn in | humidity % | barometer mb |
| 20260509213045 | 51 | 276 | 1.0 | 3.0 | 0.00 | 0.00 | 0.00 | 91 | 1030.3 |
| 20260509211543 | 51 | 266 | 2.0 | 4.0 | 0.00 | 0.00 | 0.00 | 91 | 1030.1 |
| 20260509210045 | 51 | 268 | 2.0 | 5.0 | 0.00 | 0.00 | 0.00 | 91 | 1030.1 |
| 20260509204542 | 51 | 281 | 1.0 | 4.0 | 0.00 | 0.00 | 0.00 | 91 | 1029.9 |
| 20260509203043 | 51 | 281 | 1.0 | 4.0 | 0.00 | 0.00 | 0.00 | 91 | 1029.8 |
| 20260509201536 | 52 | 284 | 1.0 | 3.0 | 0.00 | 0.00 | 0.00 | 91 | 1029.7 |
| 20260509200032 | 52 | 283 | 1.0 | 3.0 | 0.00 | 0.00 | 0.00 | 91 | 1029.6 |
| 20260509194533 | 52 | 271 | 1.0 | 4.0 | 0.00 | 0.00 | 0.00 | 91 | 1029.5 |
| 20260509193031 | 52 | 278 | 1.0 | 3.0 | 0.00 | 0.00 | 0.00 | 90 | 1029.2 |
| 20260509191538 | 52 | 281 | 2.0 | 4.0 | 0.00 | 0.00 | 0.00 | 90 | 1029.0 |
| 20260509190029 | 53 | 274 | 1.0 | 4.0 | 0.00 | 0.00 | 0.00 | 90 | 1028.9 |
| 20260509184534 | 53 | 273 | 1.0 | 5.0 | 0.00 | 0.00 | 0.00 | 90 | 1028.8 |
| 20260509183029 | 53 | 276 | 1.0 | 3.0 | 0.00 | 0.00 | 0.00 | 90 | 1028.8 |
| 20260509181520 | 53 | 274 | 1.0 | 5.0 | 0.00 | 0.00 | 0.00 | 90 | 1028.6 |
| 20260509180020 | 53 | 268 | 2.0 | 4.0 | 0.00 | 0.00 | 0.00 | 90 | 1028.6 |
| 20260509174522 | 53 | 249 | 1.0 | 4.0 | 0.00 | 0.00 | 0.00 | 90 | 1028.5 |
| 20260509173016 | 53 | 271 | 1.0 | 4.0 | 0.00 | 0.00 | 0.00 | 90 | 1028.5 |
| 20260509171514 | 53 | 273 | 2.0 | 5.0 | 0.00 | 0.00 | 0.00 | 90 | 1028.6 |
| 20260509170014 | 53 | 272 | 2.0 | 4.0 | 0.00 | 0.00 | 0.00 | 89 | 1028.6 |
| 20260509164511 | 53 | 264 | 1.0 | 4.0 | 0.00 | 0.00 | 0.00 | 89 | 1028.8 |
| 20260509163012 | 54 | 264 | 2.0 | 3.0 | 0.00 | 0.00 | 0.00 | 89 | 1028.6 |
| 20260509161510 | 54 | 273 | 1.0 | 3.0 | 0.00 | 0.00 | 0.00 | 89 | 1028.7 |
| 20260509160007 | 54 | 269 | 2.0 | 5.0 | 0.00 | 0.00 | 0.00 | 89 | 1028.8 |
| 20260509154506 | 54 | 272 | 2.0 | 3.0 | 0.00 | 0.00 | 0.00 | 89 | 1028.8 |
| 20260509153005 | 54 | 270 | 1.0 | 2.0 | 0.00 | 0.00 | 0.00 | 89 | 1028.8 |
| 20260509151503 | 54 | 281 | 0.0 | 4.0 | 0.00 | 0.00 | 0.00 | 89 | 1028.8 |
| 20260509150002 | 54 | 277 | 2.0 | 4.0 | 0.00 | 0.00 | 0.00 | 89 | 1028.8 |
| 20260509144600 | 54 | 279 | 1.0 | 6.0 | 0.00 | 0.00 | 0.00 | 88 | 1028.9 |
| 20260509143100 | 54 | 273 | 2.0 | 7.0 | 0.00 | 0.00 | 0.00 | 88 | 1028.8 |
| 20260509141558 | 54 | 278 | 2.0 | 5.0 | 0.00 | 0.00 | 0.00 | 88 | 1028.9 |
| 20260509140055 | 54 | 269 | 3.0 | 6.0 | 0.00 | 0.00 | 0.00 | 88 | 1028.9 |
| 20260509134552 | 54 | 263 | 1.0 | 4.0 | 0.00 | 0.00 | 0.00 | 88 | 1028.9 |
| 20260509133051 | 54 | 264 | 1.0 | 3.0 | 0.00 | 0.00 | 0.00 | 88 | 1028.8 |
| 20260509131549 | 54 | 278 | 1.0 | 5.0 | 0.00 | 0.00 | 0.00 | 88 | 1028.9 |
| 20260509130056 | 54 | 275 | 1.0 | 5.0 | 0.00 | 0.00 | 0.00 | 87 | 1028.8 |
| 20260509124552 | 54 | 270 | 2.0 | 4.0 | 0.00 | 0.00 | 0.00 | 86 | 1028.8 |
| 20260509123045 | 55 | 255 | 2.0 | 7.0 | 0.00 | 0.00 | 0.00 | 86 | 1028.9 |
| 20260509121546 | 55 | 264 | 1.0 | 6.0 | 0.00 | 0.00 | 0.00 | 85 | 1028.9 |
| 20260509120043 | 55 | 257 | 2.0 | 7.0 | 0.00 | 0.00 | 0.00 | 85 | 1028.8 |
| 20260509114551 | 56 | 282 | 0.0 | 2.0 | 0.00 | 0.00 | 0.00 | 86 | 1028.8 |
| 20260509113045 | 56 | 284 | 0.0 | 3.0 | 0.00 | 0.00 | 0.00 | 86 | 1028.6 |
| 20260509111540 | 56 | 274 | 0.0 | 1.0 | 0.00 | 0.00 | 0.00 | 86 | 1028.6 |
| 20260509110038 | 56 | 271 | 1.0 | 3.0 | 0.00 | 0.00 | 0.00 | 85 | 1028.4 |
| 20260509104537 | 56 | 188 | 0.0 | 0.0 | 0.00 | 0.00 | 0.00 | 85 | 1028.3 |
| 20260509103043 | 56 | 188 | 0.0 | 2.0 | 0.00 | 0.00 | 0.00 | 85 | 1028.2 |
| 20260509101554 | 56 | 179 | 0.0 | 0.0 | 0.00 | 0.00 | 0.00 | 85 | 1028.3 |
| 20260509100035 | 56 | 169 | 0.0 | 2.0 | 0.00 | 0.00 | 0.00 | 85 | 1028.2 |
| 20260509094539 | 56 | 150 | 0.0 | 2.0 | 0.00 | 0.00 | 0.00 | 85 | 1028.2 |
| 20260509093034 | 57 | 146 | 0.0 | 3.0 | 0.00 | 0.00 | 0.00 | 85 | 1028.1 |
| 20260509091530 | 57 | 192 | 0.0 | 3.0 | 0.00 | 0.00 | 0.00 | 85 | 1028.2 |
| 20260509090035 | 57 | 138 | 0.0 | 2.0 | 0.00 | 0.00 | 0.00 | 85 | 1028.1 |
| 20260509084526 | 57 | 146 | 1.0 | 5.0 | 0.00 | 0.00 | 0.00 | 85 | 1027.9 |
| 20260509083035 | 57 | 158 | 0.0 | 2.0 | 0.00 | 0.00 | 0.00 | 85 | 1027.7 |
| 20260509081524 | 57 | 160 | 1.0 | 2.0 | 0.00 | 0.00 | 0.00 | 84 | 1027.5 |
| 20260509080023 | 57 | 148 | 0.0 | 4.0 | 0.00 | 0.00 | 0.00 | 83 | 1027.4 |
| 20260509074522 | 58 | 155 | 1.0 | 4.0 | 0.00 | 0.00 | 0.00 | 83 | 1027.3 |
| 20260509073029 | 58 | 153 | 2.0 | 7.0 | 0.00 | 0.00 | 0.00 | 82 | 1027.1 |
| 20260509071526 | 58 | 134 | 1.0 | 3.0 | 0.00 | 0.00 | 0.00 | 82 | 1027.0 |
| 20260509070020 | 59 | 136 | 1.0 | 4.0 | 0.00 | 0.00 | 0.00 | 80 | 1026.8 |
| 20260509064519 | 60 | 140 | 1.0 | 3.0 | 0.00 | 0.00 | 0.00 | 79 | 1026.7 |
| 20260509063023 | 60 | 133 | 1.0 | 4.0 | 0.00 | 0.00 | 0.00 | 78 | 1026.7 |
| 20260509061522 | 61 | 128 | 1.0 | 3.0 | 0.00 | 0.00 | 0.00 | 76 | 1026.6 |
| 20260509060019 | 61 | 129 | 2.0 | 4.0 | 0.00 | 0.00 | 0.00 | 74 | 1026.5 |
| 20260509054516 | 62 | 145 | 1.0 | 4.0 | 0.00 | 0.00 | 0.00 | 73 | 1026.5 |
| 20260509053017 | 62 | 124 | 1.0 | 4.0 | 0.00 | 0.00 | 0.00 | 72 | 1026.4 |
| 20260509051515 | 62 | 129 | 2.0 | 4.0 | 0.00 | 0.00 | 0.00 | 70 | 1026.4 |
| 20260509050019 | 62 | 201 | 1.0 | 4.0 | 0.00 | 0.00 | 0.00 | 70 | 1026.4 |
| 20260509044515 | 63 | 131 | 1.0 | 5.0 | 0.00 | 0.00 | 0.00 | 70 | 1026.5 |
| 20260509043012 | 64 | 127 | 2.0 | 3.0 | 0.00 | 0.00 | 0.00 | 65 | 1026.6 |
| 20260509041511 | 63 | 269 | 1.0 | 4.0 | 0.00 | 0.00 | 0.00 | 67 | 1026.6 |
| 20260509040009 | 62 | 254 | 1.0 | 5.0 | 0.00 | 0.00 | 0.00 | 68 | 1026.6 |
| 20260509034505 | 62 | 276 | 1.0 | 4.0 | 0.00 | 0.00 | 0.00 | 69 | 1026.7 |
| 20260509033004 | 62 | 243 | 0.0 | 5.0 | 0.00 | 0.00 | 0.00 | 69 | 1026.9 |
| 20260509031507 | 61 | 266 | 3.0 | 5.0 | 0.00 | 0.00 | 0.00 | 70 | 1027.0 |
| 20260509030001 | 60 | 248 | 1.0 | 6.0 | 0.00 | 0.00 | 0.00 | 71 | 1027.2 |
| 20260509024602 | 60 | 269 | 1.0 | 3.0 | 0.00 | 0.00 | 0.00 | 72 | 1027.3 |
| 20260509023059 | 59 | 267 | 3.0 | 6.0 | 0.00 | 0.00 | 0.00 | 75 | 1027.5 |
| 20260509021554 | 58 | 255 | 5.0 | 10.0 | 0.00 | 0.00 | 0.00 | 76 | 1027.7 |
| 20260509014549 | 57 | 276 | 3.0 | 8.0 | 0.00 | 0.00 | 0.00 | 79 | 1028.0 |
| 20260509013047 | 56 | 260 | 3.0 | 11.0 | 0.00 | 0.00 | 0.00 | 81 | 1028.2 |
| 20260509011553 | 56 | 288 | 5.0 | 9.0 | 0.00 | 0.00 | 0.00 | 81 | 1028.2 |
| 20260509010045 | 56 | 284 | 4.0 | 10.0 | 0.00 | 0.00 | 0.00 | 82 | 1028.2 |
| 20260509004553 | 56 | 271 | 5.0 | 10.0 | 0.00 | 0.00 | 0.00 | 84 | 1028.1 |
| 20260509003050 | 55 | 278 | 6.0 | 12.0 | 0.00 | 0.00 | 0.00 | 85 | 1028.1 |
| 20260509001539 | 54 | 271 | 3.0 | 9.0 | 0.00 | 0.00 | 0.00 | 87 | 1028.3 |
| 20260509000038 | 54 | 255 | 2.0 | 10.0 | 0.00 | 0.00 | 0.00 | 87 | 1028.4 |
| 20260508234535 | 53 | 236 | 3.0 | 9.0 | 0.00 | 0.00 | 0.00 | 88 | 1028.3 |
| 20260508233034 | 53 | 274 | 4.0 | 11.0 | 0.00 | 0.00 | 0.00 | 90 | 1028.2 |
| 20260508231530 | 53 | 261 | 5.0 | 10.0 | 0.00 | 0.00 | 0.00 | 91 | 1028.0 |
| 20260508230027 | 52 | 296 | 4.0 | 11.0 | 0.00 | 0.00 | 0.00 | 92 | 1027.8 |
| 20260508224530 | 51 | 274 | 4.0 | 9.0 | 0.00 | 0.00 | 0.00 | 92 | 1027.8 |
| 20260508223040 | 51 | 245 | 4.0 | 9.0 | 0.00 | 0.00 | 0.00 | 91 | 1027.8 |
| 20260508221524 | 50 | 285 | 3.0 | 8.0 | 0.00 | 0.00 | 0.00 | 91 | 1027.6 |
| 20260508220023 | 50 | 261 | 4.0 | 9.0 | 0.00 | 0.00 | 0.00 | 91 | 1027.5 |
| 20260508214520 | 50 | 274 | 3.0 | 6.0 | 0.00 | 0.00 | 0.00 | 91 | 1027.4 |